Flag for United Kingdom Weather past 2 weeks in Cheltenham, England, United Kingdom

Now
63 °F

Passing clouds.


Feels Like: 63 °F
Forecast: 51 / 69 °F
Wind: No wind

Location: Staverton Private

Current Time: Jul 5, 2015 at 9:58:04 AM

Latest Report: Jul 5, 2015 at 9:20 AM


Visibility: N/A

Pressure: 30.04 "Hg

Humidity: 73%

Dew point: 54 °F

Location of CheltenhamLocation

Historic Weather in Cheltenham — Graph

°F

Cheltenham temperature yesterday

Maximum temperature yesterday: 75 °F (at 12:20 PM)
Minimum temperature yesterday: 68 °F (at 8:20 AM)
Average temperature yesterday: 73 °F

Past Weeks' High & Low Weather Summary

 TemperatureHumidityPressure
High91 °F (Jul 1, 5:50 PM)94% (Jun 20, 3:50 PM)30.30 "Hg (Jun 20, 3:50 PM)
Low54 °F (Jun 23, 6:50 AM)32% (Jun 30, 12:50 PM)29.80 "Hg (Jul 1, 6:50 AM)
Average69 °F63%30.05 "Hg
* Reported Jun 19 6:50 PM — Jul 4 6:50 PM, Cheltenham, Weather by CustomWeather, © 2015

Note: Actual official high and low records may vary slightly from our data, if they occured in-between our weather recording intervals... More about our weather records

Advertising

Cheltenham weather history for previous 24 hours

 ConditionsComfort  
Time TempWeatherWind HumidityBarometerVisibility
6:50 PM
Sat, Jul 4
72 °FPassing clouds.7 mph47%30.09 "HgN/A
6:20 PM72 °FPassing clouds.7 mph47%30.09 "HgN/A
5:50 PM73 °FPassing clouds.10 mph44%30.09 "HgN/A
5:20 PM75 °FPassing clouds.13 mph41%30.09 "HgN/A
4:50 PM72 °FPassing clouds.12 mph47%30.09 "HgN/A
4:20 PM73 °FPassing clouds.10 mph53%30.07 "HgN/A
3:50 PM75 °FPassing clouds.14 mph54%30.07 "HgN/A
3:20 PM75 °FPassing clouds.12 mph50%30.07 "HgN/A
2:50 PM75 °FPassing clouds.14 mph54%30.07 "HgN/A
2:20 PM75 °FPassing clouds.12 mph54%30.07 "HgN/A
1:50 PM75 °FScattered clouds.15 mph57%30.04 "HgN/A
1:20 PM75 °FScattered clouds.15 mph57%30.04 "HgN/A
12:50 PM75 °FScattered clouds.13 mph57%30.04 "HgN/A
12:20 PM75 °FPassing clouds.13 mph57%30.04 "HgN/A
11:50 AM73 °FScattered clouds.10 mph65%30.04 "HgN/A
11:20 AM72 °FScattered clouds.9 mph73%30.04 "HgN/A
10:50 AM72 °FScattered clouds.10 mph69%30.04 "HgN/A
10:20 AM72 °FScattered clouds.12 mph69%30.01 "HgN/A
9:50 AM70 °FScattered clouds.10 mph73%30.01 "HgN/A
9:20 AM70 °FScattered clouds.12 mph73%30.01 "HgN/A
Weather by CustomWeather, © 2015

See weather overviewHow to use our weather pages